Regional Weather Roundup
Issued by NWS

Home | Current Version | Previous Version | Graphics & Text | Print | Product List | Glossary Off
Versions: 1 2 3 4 5 6 7 8 9 10 11 12 13 14 15 16 17 18 19 20 21 22 23 24 25 26 27 28 29 30 31 32 33 34 35 36 37 38 39 40 41 42 43 44 45 46 47 48 49 50

000
ASUS43 KMKX 250800
RWRWI

WISCONSIN REGIONAL WEATHER ROUNDUP
NATIONAL WEATHER SERVICE MILWAUKEE/SULLIVAN WI
300 AM CDT WED MAY 25 2016

NOTE: "FAIR" INDICATES FEW OR NO CLOUDS BELOW 12,000 FEET WITH NO
SIGNIFICANT WEATHER AND/OR OBSTRUCTIONS TO VISIBILITY.

WIZ001-002-006>008-014>016-023>028-250900-
NORTHWEST WISCONSIN

CITY           SKY/WX    TMP DP  RH WIND       PRES   REMARKS
SUPERIOR ARPT  FOG       44  44 100 NE6       30.04S VSB 3/4
ASHLAND        FOG       49  49 100 CALM      30.03R VSB 1/4
HAYWARD        CLOUDY    55  53  93 N5        30.01R
SIREN          CLOUDY    57  56  97 NE6       29.99R
CUMBERLAND     CLOUDY    59  55  88 NE3       29.99R
RICE LAKE      CLOUDY    62  58  86 CALM      30.00R
CHETEK         NOT AVBL
LADYSMITH      CLEAR     60  57  92 E6        30.01R
EAU CLAIRE     NOT AVBL
MENOMONIE      CLOUDY    57  55  94 CALM      29.97R
NEW RICHMOND   CLOUDY    62  53  72 E5        29.96S
OSCEOLA        CLOUDY    60  59  97 CALM      29.97F
$$

WIZ003>005-009-010-017-018-250900-
NORTH CENTRAL WISCONSIN

CITY           SKY/WX    TMP DP  RH WIND       PRES   REMARKS
MANITOWISH WTR NOT AVBL
ARBOR VITAE    FOG       57  56  95 CALM      30.00S VSB 1/4
WOODRUFF       FOG       57  56  95 CALM      30.00S VSB 1/4
RHINELANDER    FOG       51  50  96 CALM      30.01S VSB 1/4
EAGLE RIVER    FOG       58  58 100 CALM      30.01S VSB 1/4
LAND O LAKES   FOG       58  58 100 CALM      30.02S VSB 1/2
PHILLIPS       FOG       51  51 100 CALM      29.99S VSB 1/2
TOMAHAWK       FOG       47  46  96 CALM      30.01S VSB 1
MEDFORD        CLEAR     55  55 100 N3        29.99S
MERRILL        FOG       51  51 100 CALM      29.99F VSB 3/4
$$

WIZ029-030-035-036-043>047-250900-
CENTRAL WISCONSIN

CITY           SKY/WX    TMP DP  RH WIND       PRES   REMARKS
WAUSAU         CLOUDY    60  57  89 CALM      29.98R
MOSINEE        CLOUDY    55  55 100 CALM      30.00S
MARSHFIELD     CLEAR     61  56  83 E5        29.98R
STEVENS POINT  CLEAR     53  51  95 CALM      29.98F
WAUPACA        CLEAR     59  58  96 CALM      29.97F
WAUTOMA        NOT AVBL
WISC RAPIDS    CLEAR     55  52  89 CALM      30.00R FOG
CAMP DOUGLAS   CLEAR     50  50 100 CALM      29.97R FOG
$$

WIZ011>013-019>022-031-037>040-048>050-250900-
NORTHEAST WISCONSIN

CITY           SKY/WX    TMP DP  RH WIND       PRES   REMARKS
ANTIGO         CLEAR     53  53  98 CALM      30.00S
SHAWANO        FOG       59  56  92 CALM      29.98S VSB 3/4
OCONTO         CLEAR    N/A N/A N/A CALM      29.98S
STURGEON BAY   NOT AVBL
GREEN BAY      CLEAR     57  55  93 N5        29.97S
MANITOWOC      NOT AVBL
APPLETON       CLEAR     61  52  72 N3        29.96S
CLINTONVILLE   CLEAR     55  54  94 CALM      29.97S
OSHKOSH        CLEAR     57  54  89 S7        29.97R
$$

WIZ032>034-041-042-053>061-250900-
SOUTHWEST WISCONSIN

CITY           SKY/WX    TMP DP  RH WIND       PRES   REMARKS
LA CROSSE      CLEAR     62  58  86 E8        29.95S
SPARTA         CLEAR     51  51  98 CALM      29.98R
VIROQUA        CLEAR     63  58  82 E5        29.98S
BOSCOBEL       PTCLDY    58  57  97 CALM      29.97S FOG
PRAIRIE DU CHI PTCLDY    62  60  91 CALM      29.95F
PLATTEVILLE    MOCLDY    69  61  77 S3        29.97S
$$

WIZ056-057-062-063-064-067-068-250900-
SOUTH CENTRAL WISCONSIN

CITY           SKY/WX    TMP DP  RH WIND       PRES   REMARKS
REEDSBURG      CLEAR     56  56 100 CALM      29.98R FOG
BARABOO/DELLS  CLEAR     59  56  89 CALM      29.98R
LONE ROCK      NOT AVBL
MINERAL POINT  PTCLDY    70  59  68 SE3       29.97S
MADISON        MOCLDY    62  59  90 CALM      29.97R
MIDDLETON      CLEAR     61  58  89 CALM      29.98R
WATERTOWN      MOCLDY    64  64 100 CALM      29.97R
MONROE         CLEAR     64  59  82 S6        29.97S
JANESVILLE     PTCLDY    64  61  88 CALM      29.97R
$$

WIZ051-052-058>065-066-070>072-250900-
SOUTHEAST WISCONSIN

CITY           SKY/WX    TMP DP  RH WIND       PRES   REMARKS
MILWAUKEE      PTCLDY    62  52  69 CALM      29.97S
WAUKESHA       CLEAR     59  59 100 CALM      29.99S FOG
MILWAUKEE/TIMM PTCLDY    63  59  88 CALM      29.98S
RACINE         PTCLDY    64  54  69 SW5       29.99S
BURLINGTON     PTCLDY    62  59  90 CALM      29.98S
KENOSHA        CLEAR     68  57  68 SW8       29.98S
FOND DU LAC    CLEAR     57  56  96 SE3       29.97S
SHEBOYGAN      CLEAR     54  52  93 CALM      29.98R FOG
WEST BEND      CLEAR     59  57  94 CALM      29.98S FOG
JUNEAU         PTCLDY    62  58  88 CALM      29.98S
$$

LSZ147-162-250900-
LAKE SUPERIOR

STATION/POSITION TIME  TEMP    WIND        PRES    WAVE
                       AIR SEA DIR/SP/G            HT/PER
                 (UTC) (F)     (DEG/KT/KT) (MB)    (FT/S)
W MID LAKE BUOY  0650   40 38   70/  8/  8 1017.3F   2/ 4
DEVILS ISLAND    0700   45      70/ 11/ 11 1017.1F
SAXON HARBOR     0700   46     210/  3/  4 1015.6F
$$

LMZ867-665-643>646-250900-
LAKE MICHIGAN

STATION/POSITION TIME  TEMP    WIND        PRES    WAVE
                       AIR SEA DIR/SP/G            HT/PER
                 (UTC) (F)     (DEG/KT/KT) (MB)    (FT/S)
CHAMBERS ISLAND  0700   55      30/  9/ 11 1015.6R
N MID LAKE BUOY  0650   47 44  100/  6/  6 1015.3R   1/ 5
NORTHPORT PIER   0700   53     320/  2/  3 1015.6R
SISTER BAY       0619   54        CALM       N/A
ALGOMA LAKESHORE 0717             CALM       N/A
KEWAUNEE LAKESHO 0700   59      30/  6/  8 1013.7R
SHEBOYGAN LAKESH 0700   65     220/  6/  6 1014.8R
PORT WASHINGTON  0740   62     270/  2/  3 1015.6R
S MID LAKE BUOY  0650   59 49  200/  6/  8 1015.0R   0
KENOSHA   LAKESH 0700   68     220/  9/ 12 1014.9R
$$

TC  - TEMPERATURE IN CELSIUS
VSB - VISIBILITY IN STATUTE MILES
WCI - WIND CHILL INDEX
HX  - HEAT INDEX





USA.gov is the U.S. government's official web portal to all federal, state and local government web resources and services.